This demonstration page uses our WeatherBlox Daily Observations layout. Learn more.

Hourly Observations for June 5, 2017

Temp ( °F °C ) Dew Point ( °F °C ) Humidity (%) Winds ( mph kmh ) Pressure ( in mb ) Visibility ( mi km ) Precip ( " mm )
12:15 am 00:15 Clear 68 20 63 17 83 83 Calm 29.83 1010 10 16.09344 0 0
12:35 am 00:35 Clear 70 21 61 16 73 73 Calm 29.83 1010 10 16.09344 0 0
12:55 am 00:55 Clear 68 20 61 16 78 78 Calm 29.83 1010 10 16.09344 0 0
1:15 am 01:15 Clear 68 20 63 17 83 83 Calm 29.8 1009 10 16.09344 0 0
1:35 am 01:35 Clear 66 19 63 17 88 88 Calm 29.8 1009 10 16.09344 0 0
1:55 am 01:55 Clear 68 20 63 17 83 83 Calm 29.8 1009 10 16.09344 0 0
2:15 am 02:15 Clear 68 20 63 17 83 83 Calm 29.8 1009 10 16.09344 0 0
2:35 am 02:35 Clear 64 18 63 17 94 94 Calm 29.8 1009 10 16.09344 0 0
2:55 am 02:55 Clear 64 18 63 17 94 94 Calm 29.8 1009 10 16.09344 0 0
3:15 am 03:15 Clear 64 18 63 17 94 94 SW 5 7 29.8 1009 10 16.09344 0 0
3:35 am 03:35 Clear 64 18 63 17 94 94 Calm 29.77 1008 10 16.09344 0 0
3:55 am 03:55 Clear 64 18 63 17 94 94 Calm 29.77 1008 10 16.09344 0 0
4:15 am 04:15 Clear 64 18 63 17 94 94 Calm 29.77 1008 10 16.09344 0 0
4:35 am 04:35 Clear 64 18 63 17 94 94 SSW 5 7 29.77 1008 10 16.09344 0 0
4:55 am 04:55 Clear 64 18 64 18 100 100 Calm 29.77 1008 10 16.09344 0 0
5:15 am 05:15 Clear 64 18 64 18 100 100 Calm 29.77 1008 10 16.09344 0 0
5:35 am 05:35 Clear 64 18 64 18 100 100 Calm 29.77 1008 10 16.09344 0 0
5:55 am 05:55 Sunny 66 19 64 18 94 94 Calm 29.77 1008 10 16.09344 0 0
6:15 am 06:15 Sunny 64 18 63 17 94 94 Calm 29.77 1008 10 16.09344 0 0
6:35 am 06:35 Sunny 64 18 63 17 94 94 Calm 29.77 1008 10 16.09344 0 0
6:55 am 06:55 Sunny 64 18 63 17 94 94 Calm 29.8 1009 10 16.09344 0 0
7:15 am 07:15 Sunny 64 18 63 17 94 94 Calm 29.8 1009 10 16.09344 0 0
7:35 am 07:35 Sunny 64 18 63 17 94 94 Calm 29.8 1009 10 16.09344 0 0
7:55 am 07:55 Sunny 66 19 63 17 88 88 Calm 29.8 1009 10 16.09344 0 0
8:15 am 08:15 Sunny 68 20 64 18 88 88 Calm 29.8 1009 10 16.09344 0 0
8:35 am 08:35 Sunny 68 20 64 18 88 88 Calm 29.8 1009 10 16.09344 0 0
8:55 am 08:55 Sunny 68 20 64 18 88 88 Calm 29.8 1009 10 16.09344 0 0
9:15 am 09:15 Partly Cloudy 70 21 66 19 88 88 Calm 29.8 1009 10 16.09344 0 0
9:35 am 09:35 Mostly Cloudy 70 21 68 20 94 94 Calm 29.8 1009 10 16.09344 0 0
9:55 am 09:55 Partly Cloudy 70 21 68 20 94 94 Calm 29.8 1009 10 16.09344 0 0
10:15 am 10:15 Mostly Cloudy 72 22 68 20 88 88 Calm 29.77 1008 10 16.09344 0 0
10:35 am 10:35 Partly Cloudy 72 22 68 20 88 88 Calm 29.77 1008 10 16.09344 0 0
10:55 am 10:55 Mostly Cloudy 72 22 70 21 94 94 Calm 29.77 1008 10 16.09344 0 0
11:15 am 11:15 Cloudy 72 22 70 21 94 94 Calm 29.8 1009 10 16.09344 0 0
11:35 am 11:35 Cloudy with Light Rain 72 22 70 21 94 94 Calm 29.8 1009 10 16.09344 0 0
11:55 am 11:55 Cloudy with Light Rain 72 22 70 21 94 94 Calm 29.8 1009 7 11.265408 0.01 0.254
12:15 pm 12:15 Cloudy with Light Rain 72 22 70 21 94 94 Calm 29.8 1009 7 11.265408 0.01 0.254
12:35 pm 12:35 Cloudy with Light Rain 72 22 72 22 100 100 Calm 29.8 1009 10 16.09344 0.01 0.254
12:55 pm 12:55 Cloudy with Light Rain 72 22 72 22 100 100 NNE 3 6 29.8 1009 7 11.265408 0.03 0.762
1:15 pm 13:15 Cloudy with Rain 72 22 72 22 100 100 NNE 3 6 29.8 1009 5 8.04672 0.01 0.254
1:35 pm 13:35 Cloudy with Light Rain 72 22 72 22 100 100 NE 3 6 29.8 1009 4 6.437376 0.03 0.762
1:55 pm 13:55 Cloudy with Heavy Rain 70 21 70 21 100 100 N 7 11 29.8 1009 1.75 2.816352 0.2 5.08
2:15 pm 14:15 Cloudy with Light Rain 70 21 70 21 100 100 NNE 3 6 29.77 1008 7 11.265408 0.01 0.254
2:35 pm 14:35 Cloudy with Light Rain 70 21 70 21 100 100 NNE 3 6 29.77 1008 7 11.265408 0.02 0.508
2:55 pm 14:55 Cloudy with Light Rain 72 22 68 20 88 88 N 6 9 29.77 1008 10 16.09344 0.02 0.508
3:15 pm 15:15 Cloudy with Light Rain 72 22 68 20 88 88 NNE 3 6 29.77 1008 10 16.09344 0 0
3:35 pm 15:35 Mostly Cloudy 72 22 68 20 88 88 Calm 29.74 1007 10 16.09344 0 0
3:55 pm 15:55 Partly Cloudy 72 22 68 20 88 88 ESE 3 6 29.74 1007 10 16.09344 0 0
4:15 pm 16:15 Partly Cloudy 73 23 64 18 74 74 Calm 29.74 1007 10 16.09344 0 0
4:35 pm 16:35 Sunny 73 23 66 19 78 78 Calm 29.71 1006 10 16.09344 0 0
4:55 pm 16:55 Sunny 73 23 66 19 78 78 Calm 29.71 1006 10 16.09344 0 0
5:15 pm 17:15 Sunny 73 23 68 20 83 83 Calm 29.71 1006 10 16.09344 0 0
5:35 pm 17:35 Sunny 73 23 68 20 83 83 SE 3 6 29.71 1006 10 16.09344 0 0
5:55 pm 17:55 Sunny 73 23 68 20 83 83 SSE 3 6 29.71 1006 10 16.09344 0 0
6:15 pm 18:15 Sunny 73 23 68 20 83 83 Calm 29.71 1006 10 16.09344 0 0
6:35 pm 18:35 Sunny 73 23 68 20 83 83 Calm 29.71 1006 10 16.09344 0 0
6:55 pm 18:55 Sunny 72 22 68 20 88 88 Calm 29.71 1006 10 16.09344 0 0
7:15 pm 19:15 Sunny 72 22 68 20 88 88 Calm 29.71 1006 10 16.09344 0 0
7:35 pm 19:35 Sunny 72 22 68 20 88 88 Calm 29.71 1006 10 16.09344 0 0
7:55 pm 19:55 Sunny 72 22 70 21 94 94 Calm 29.71 1006 10 16.09344 0 0
8:15 pm 20:15 Sunny 72 22 70 21 94 94 Calm 29.71 1006 10 16.09344 0 0
8:35 pm 20:35 Clear 70 21 70 21 100 100 Calm 29.71 1006 10 16.09344 0 0
8:55 pm 20:55 Clear 70 21 70 21 100 100 Calm 29.71 1006 10 16.09344 0 0
9:15 pm 21:15 Clear 70 21 70 21 100 100 Calm 29.71 1006 10 16.09344 0 0
9:35 pm 21:35 Clear 70 21 70 21 100 100 Calm 29.68 1005 10 16.09344 0 0
9:55 pm 21:55 Clear 70 21 70 21 100 100 Calm 29.68 1005 10 16.09344 0 0
10:15 pm 22:15 Clear 70 21 70 21 100 100 SSE 5 7 29.68 1005 10 16.09344 0 0
10:35 pm 22:35 Clear 70 21 70 21 100 100 Calm 29.68 1005 10 16.09344 0 0
10:55 pm 22:55 Clear 68 20 68 20 100 100 Calm 29.68 1005 10 16.09344 0 0
11:15 pm 23:15 Partly Cloudy 68 20 68 20 100 100 NW 3 6 29.71 1006 7 11.265408 0 0
11:35 pm 23:35 Partly Cloudy with Mist and Fog 66 19 66 19 100 100 WNW 3 6 29.71 1006 5 8.04672 0 0
11:55 pm 23:55 Clear with Mist and Fog 66 19 66 19 100 100 W 3 6 29.71 1006 5 8.04672 0 0

Powered by AerisWeather